Sigfox identifier Datetime Temperature Humidity SNR
002EEC5A 2019-04-23 15:00:41 16.7 30 25.4
002EEC5A 2019-04-23 14:28:20 16.5 30 25.3
002EEC5A 2019-04-23 13:56:01 16.5 30 25.2
002EEC5A 2019-04-23 13:23:41 16.3 30 25.1
002EEC5A 2019-04-23 12:51:21 16.1 30 25.4
002EEC5A 2019-04-23 12:19:00 16.1 30 25.4
002EEC5A 2019-04-23 11:46:40 16 30 25.4
002EEC5A 2019-04-23 11:14:20 15.9 30 25.4
002EEC5A 2019-04-23 10:42:00 15.9 30 25.3
002EEC5A 2019-04-23 10:09:40 15.9 30 25.3
002EEC5A 2019-04-23 09:37:20 15.7 30 25.4
002EEC5A 2019-04-23 09:05:00 15.7 30 25.5
002EEC5A 2019-04-23 08:32:40 15.7 30 25.4
002EEC5A 2019-04-23 08:00:21 15.7 30 25.2
002EEC5A 2019-04-23 07:28:01 15.7 30 25.2
002EEC5A 2019-04-23 06:55:42 15.7 30 25.2
002EEC5A 2019-04-23 06:23:22 15.7 30 25.3
002EEC5A 2019-04-23 05:51:04 15.7 29 25.2
002EEC5A 2019-04-23 05:18:46 15.7 29 25.2
002EEC5A 2019-04-23 04:46:28 15.7 29 25.1
002EEC5A 2019-04-23 04:14:10 15.7 29 25.1
002EEC5A 2019-04-23 03:41:50 15.7 29 25.2
002EEC5A 2019-04-23 03:09:30 15.5 29 25.3
002EEC5A 2019-04-23 02:37:09 15.5 29 25.3
002EEC5A 2019-04-23 02:04:50 15.6 29 25.3
002EEC5A 2019-04-23 01:32:30 15.7 29 25.4
002EEC5A 2019-04-23 01:00:11 15.7 29 25.5
002EEC5A 2019-04-23 00:27:52 15.7 29 25.4
002EEC5A 2019-04-22 23:55:33 15.7 29 25.2
002EEC5A 2019-04-22 23:23:13 15.7 29 25.3
002EEC5A 2019-04-22 22:50:54 15.7 29 25.3
002EEC5A 2019-04-22 22:18:35 15.8 29 25.4
002EEC5A 2019-04-22 21:46:15 15.9 29 25.5
002EEC5A 2019-04-22 21:13:56 15.9 29 25.4
002EEC5A 2019-04-22 20:41:38 15.9 29 25.4
002EEC5A 2019-04-22 20:09:19 15.9 29 25.2
002EEC5A 2019-04-22 19:37:01 16 29 25.2
002EEC5A 2019-04-22 19:04:42 16.1 29 25
002EEC5A 2019-04-22 18:32:24 16.1 29 25
002EEC5A 2019-04-22 18:00:06 16.1 29 25
002EEC5A 2019-04-22 17:27:48 16.1 29 25.1
002EEC5A 2019-04-22 16:55:31 16.1 29 25.1
002EEC5A 2019-04-22 16:23:13 16.1 29 25.1
002EEC5A 2019-04-22 15:50:56 16.1 29 25.2
002EEC5A 2019-04-22 15:18:38 16.1 29 25.1
002EEC5A 2019-04-22 14:46:18 15.9 29 25
002EEC5A 2019-04-22 14:13:59 15.9 29 25
002EEC5A 2019-04-22 13:41:39 15.9 29 25
002EEC5A 2019-04-22 13:09:21 15.9 29 24.9
002EEC5A 2019-04-22 12:37:02 15.9 29 25
002EEC5A 2019-04-22 12:04:44 15.9 29 25
002EEC5A 2019-04-22 11:32:25 15.9 29 24.9
002EEC5A 2019-04-22 11:00:08 15.9 29 25.1
002EEC5A 2019-04-22 10:27:46 15.9 29 25.1
002EEC5A 2019-04-22 09:55:26 15.7 29 24.9
002EEC5A 2019-04-22 09:23:06 15.7 29 25
002EEC5A 2019-04-22 08:50:47 15.7 29 24.9
002EEC5A 2019-04-22 08:18:27 15.7 29 24.9
002EEC5A 2019-04-22 07:46:06 15.7 29 25
002EEC5A 2019-04-22 07:13:46 15.8 29 25.1
002EEC5A 2019-04-22 06:41:26 15.7 28 25.1
002EEC5A 2019-04-22 06:09:06 15.8 28 25.1
002EEC5A 2019-04-22 05:36:46 15.9 28 25.1
002EEC5A 2019-04-22 05:04:26 15.7 29 25.1
002EEC5A 2019-04-22 04:32:07 15.7 28 25.1
002EEC5A 2019-04-22 03:59:49 15.9 28 25.1
002EEC5A 2019-04-22 03:27:30 15.7 28 25
002EEC5A 2019-04-22 02:55:11 15.7 28 25.1
002EEC5A 2019-04-22 02:22:51 15.6 28 25.1
002EEC5A 2019-04-22 01:50:32 15.7 28 25.1
002EEC5A 2019-04-22 01:18:12 15.7 28 25.1
002EEC5A 2019-04-22 00:45:53 15.5 28 25.1
002EEC5A 2019-04-22 00:13:33 15.7 28 25.1
002EEC5A 2019-04-21 23:41:13 15.6 28 25.1
002EEC5A 2019-04-21 23:08:54 15.5 28 25
002EEC5A 2019-04-21 22:36:34 15.5 28 25.1
002EEC5A 2019-04-21 22:04:15 15.6 28 25.1
002EEC5A 2019-04-21 21:31:55 15.6 28 25
002EEC5A 2019-04-21 20:59:36 15.5 28 24.9
002EEC5A 2019-04-21 20:27:17 15.5 28 25
002EEC5A 2019-04-21 19:54:58 15.5 28 24.9
002EEC5A 2019-04-21 19:22:39 15.7 28 25
002EEC5A 2019-04-21 18:50:20 15.6 28 25
002EEC5A 2019-04-21 18:18:01 15.5 28 25
002EEC5A 2019-04-21 17:45:42 15.5 28 25
002EEC5A 2019-04-21 17:13:23 15.5 28 25
002EEC5A 2019-04-21 16:41:04 15.5 28 25
002EEC5A 2019-04-21 16:08:44 15.5 28 25.1
002EEC5A 2019-04-21 15:36:25 15.5 28 25.2
002EEC5A 2019-04-21 15:04:05 15.5 28 25.2
002EEC5A 2019-04-21 14:31:46 15.5 28 25.2
002EEC5A 2019-04-21 13:59:29 15.5 28 25.2
002EEC5A 2019-04-21 13:27:10 15.5 28 25.1
002EEC5A 2019-04-21 12:54:52 15.5 28 25.2
002EEC5A 2019-04-21 12:22:35 15.5 28 25.3
002EEC5A 2019-04-21 11:50:19 15.4 28 25.5
002EEC5A 2019-04-21 11:18:05 15.5 28 25.4
002EEC5A 2019-04-21 10:45:43 15.5 28 25.5
002EEC5A 2019-04-21 10:13:24 15.5 28 25.5
002EEC5A 2019-04-21 09:41:05 15.5 28 25.5
002EEC5A 2019-04-21 09:08:46 15.7 28 25.5
002EEC5A 2019-04-21 08:36:27 15.7 28 25.6
002EEC5A 2019-04-21 08:04:09 15.9 27 25.7
002EEC5A 2019-04-21 07:31:49 15.7 28 25.9
002EEC5A 2019-04-21 06:59:29 15.9 27 25.9
002EEC5A 2019-04-21 06:27:10 15.7 27 25.9
002EEC5A 2019-04-21 05:54:50 15.9 27 25.9
002EEC5A 2019-04-21 05:22:31 15.7 27 25.9
002EEC5A 2019-04-21 04:50:11 15.8 27 25.8
002EEC5A 2019-04-21 04:17:50 15.7 27 25.8
002EEC5A 2019-04-21 03:45:31 15.7 27 25.9
002EEC5A 2019-04-21 03:13:10 15.7 27 25.8
002EEC5A 2019-04-21 02:40:49 15.7 27 25.8
002EEC5A 2019-04-21 02:08:30 15.7 27 25.8
002EEC5A 2019-04-21 01:36:11 15.7 27 25.8
002EEC5A 2019-04-21 01:03:52 15.6 27 25.7
002EEC5A 2019-04-21 00:31:32 15.7 27 25.8
002EEC5A 2019-04-20 23:59:12 15.7 27 25.8
002EEC5A 2019-04-20 23:26:52 15.5 27 25.8
002EEC5A 2019-04-20 22:54:33 15.5 27 25.7
002EEC5A 2019-04-20 22:22:14 15.5 27 25.5
002EEC5A 2019-04-20 21:49:53 15.5 27 25.5
002EEC5A 2019-04-20 21:17:33 15.6 27 25.6
002EEC5A 2019-04-20 20:45:13 15.6 27 25.6
002EEC5A 2019-04-20 20:12:52 15.6 27 25.9
002EEC5A 2019-04-20 19:40:32 15.5 27 25.9
002EEC5A 2019-04-20 19:08:13 15.5 27 25.9
002EEC5A 2019-04-20 18:35:53 15.7 27 25.8
002EEC5A 2019-04-20 18:03:34 15.7 27 25.8
002EEC5A 2019-04-20 17:31:16 15.6 27 25.8
002EEC5A 2019-04-20 16:58:57 15.5 27 25.6
002EEC5A 2019-04-20 16:26:41 15.5 27 25.6
002EEC5A 2019-04-20 15:54:22 15.6 27 25.6
002EEC5A 2019-04-20 15:22:05 15.6 27 25.6
002EEC5A 2019-04-20 14:49:46 15.5 27 25.6
002EEC5A 2019-04-20 14:17:30 15.5 27 25.6
002EEC5A 2019-04-20 13:45:13 15.5 27 25.6
002EEC5A 2019-04-20 13:12:55 15.5 27 25.6
002EEC5A 2019-04-20 12:40:38 15.5 26 25.6
002EEC5A 2019-04-20 12:08:21 15.5 26 25.6
002EEC5A 2019-04-20 11:36:03 15.5 26 25.7
002EEC5A 2019-04-20 11:03:44 15.5 26 25.6
002EEC5A 2019-04-20 10:31:25 15.5 26 25.4
002EEC5A 2019-04-20 09:59:06 15.5 26 25.5
002EEC5A 2019-04-20 09:26:47 15.5 26 25.5
002EEC5A 2019-04-20 08:54:29 15.6 26 25.5
002EEC5A 2019-04-20 08:22:10 15.7 26 25.5
002EEC5A 2019-04-20 07:49:51 15.7 26 25.4
002EEC5A 2019-04-20 07:17:32 15.9 26 25.5
002EEC5A 2019-04-20 06:45:13 15.8 26 25
002EEC5A 2019-04-20 06:12:54 15.7 26 25
002EEC5A 2019-04-20 05:40:36 15.7 26 25
002EEC5A 2019-04-20 05:08:19 15.7 26 25.1
002EEC5A 2019-04-20 04:36:00 15.7 26 25.1
002EEC5A 2019-04-20 04:03:43 15.7 26 25.5
002EEC5A 2019-04-20 03:31:23 15.7 26 25.4
002EEC5A 2019-04-20 02:59:04 15.7 26 25.3
002EEC5A 2019-04-20 02:26:44 15.8 26 25.4
002EEC5A 2019-04-20 01:54:26 15.9 26 25.3
002EEC5A 2019-04-20 01:22:07 15.9 26 25.3
002EEC5A 2019-04-20 00:49:50 15.9 26 25.3
002EEC5A 2019-04-20 00:17:32 15.9 26 25.2
002EEC5A 2019-04-19 23:45:13 16 26 25.1
002EEC5A 2019-04-19 23:12:53 16 26 25.2
002EEC5A 2019-04-19 22:40:33 16.1 26 25.4
002EEC5A 2019-04-19 22:08:14 16.1 26 25.2
002EEC5A 2019-04-19 21:35:55 16.1 26 25.4
002EEC5A 2019-04-19 21:03:36 16.1 26 25.3
002EEC5A 2019-04-19 20:31:17 16.1 26 25.3
002EEC5A 2019-04-19 19:58:59 16.2 26 25.3
002EEC5A 2019-04-19 19:26:40 16.3 26 25.3
002EEC5A 2019-04-19 18:54:20 16.3 26 25.2
002EEC5A 2019-04-19 18:22:01 16.3 26 25.4
002EEC5A 2019-04-19 17:49:42 16.3 26 25.3
002EEC5A 2019-04-19 17:17:23 16.3 26 25.3
002EEC5A 2019-04-19 16:45:05 16.3 26 25.3
002EEC5A 2019-04-19 16:12:45 16.2 25 25.3
002EEC5A 2019-04-19 15:40:25 16.1 25 25.2
002EEC5A 2019-04-19 15:08:06 16.1 25 25.1
002EEC5A 2019-04-19 14:35:48 16.1 25 25
002EEC5A 2019-04-19 14:03:29 16.1 25 25.1
002EEC5A 2019-04-19 13:31:10 16 25 25
002EEC5A 2019-04-19 12:58:50 15.9 25 25
002EEC5A 2019-04-19 12:26:31 15.9 25 25
002EEC5A 2019-04-19 11:54:12 15.9 25 25.1
002EEC5A 2019-04-19 11:21:54 15.9 25 25
002EEC5A 2019-04-19 10:49:36 15.9 25 25
002EEC5A 2019-04-19 10:17:17 15.9 25 24.9
002EEC5A 2019-04-19 09:44:58 15.9 25 25
002EEC5A 2019-04-19 09:12:38 15.8 25 24.9
002EEC5A 2019-04-19 08:40:18 15.8 25 24.8
002EEC5A 2019-04-19 08:07:58 15.8 25 24.8
002EEC5A 2019-04-19 07:35:39 15.8 25 24.8
002EEC5A 2019-04-19 07:03:18 15.9 25 25
002EEC5A 2019-04-19 06:30:58 15.9 25 25
002EEC5A 2019-04-19 05:58:39 15.9 25 25
002EEC5A 2019-04-19 05:26:20 15.9 25 24.9
002EEC5A 2019-04-19 04:54:01 15.9 25 24.7
002EEC5A 2019-04-19 04:21:41 15.9 25 25
002EEC5A 2019-04-19 03:49:21 15.9 25 25
002EEC5A 2019-04-19 03:17:00 15.9 25 25
002EEC5A 2019-04-19 02:44:40 15.9 25 24.9
002EEC5A 2019-04-19 02:12:21 15.9 25 24.8
002EEC5A 2019-04-19 01:40:01 16 25 24.7
002EEC5A 2019-04-19 01:07:42 16.1 25 24.9
002EEC5A 2019-04-19 00:35:22 16.1 25 25
002EEC5A 2019-04-19 00:03:03 16.3 25 25.1
002EEC5A 2019-04-18 23:30:44 16.3 25 25.2
002EEC5A 2019-04-18 22:58:26 16.5 25 25.3
002EEC5A 2019-04-18 22:26:07 16.5 24 25.4
002EEC5A 2019-04-18 21:53:48 16.5 24 25.4
002EEC5A 2019-04-18 21:21:29 16.6 24 25.4
002EEC5A 2019-04-18 20:49:10 16.5 24 25.4
002EEC5A 2019-04-18 20:16:51 16.6 24 25.5
002EEC5A 2019-04-18 19:44:32 16.8 24 25.4
002EEC5A 2019-04-18 19:12:12 16.8 24 25.5
002EEC5A 2019-04-18 18:39:54 16.8 24 25.5
002EEC5A 2019-04-18 18:07:37 16.8 24 25.6
002EEC5A 2019-04-18 17:35:19 16.8 24 25.5
002EEC5A 2019-04-18 17:03:00 16.7 24 25.5
002EEC5A 2019-04-18 16:30:41 16.7 24 25.5
002EEC5A 2019-04-18 15:58:24 16.5 24 25.5
002EEC5A 2019-04-18 15:26:06 16.5 24 25.6
002EEC5A 2019-04-18 14:53:47 16.4 24 25.4
002EEC5A 2019-04-18 14:21:28 16.3 24 25.4
002EEC5A 2019-04-18 13:49:07 16.3 24 25.5
002EEC5A 2019-04-18 13:16:49 16.1 24 25.6
002EEC5A 2019-04-18 12:44:30 16.1 24 25.5
002EEC5A 2019-04-18 12:12:09 16.1 24 25.6
002EEC5A 2019-04-18 11:39:50 16.1 24 25.5
002EEC5A 2019-04-18 11:07:32 16.2 24 25.2
002EEC5A 2019-04-18 10:35:13 16.3 24 25.2
002EEC5A 2019-04-18 10:02:53 16.1 24 25
002EEC5A 2019-04-18 09:30:33 15.9 24 24.8
002EEC5A 2019-04-18 08:58:13 15.9 24 24.5
002EEC5A 2019-04-18 08:25:53 16.1 24 24.5
002EEC5A 2019-04-18 07:53:35 16.1 24 24.4
002EEC5A 2019-04-18 07:21:15 16.1 24 24.2
002EEC5A 2019-04-18 06:48:55 16.1 24 24
002EEC5A 2019-04-18 06:16:35 16.1 24 23.9
002EEC5A 2019-04-18 05:44:15 16 24 23.8
002EEC5A 2019-04-18 05:11:56 15.9 23 23.7
002EEC5A 2019-04-18 04:39:36 15.9 23 24
002EEC5A 2019-04-18 04:07:17 15.9 23 23.9
002EEC5A 2019-04-18 03:34:57 15.9 23 23.9
002EEC5A 2019-04-18 03:02:37 15.9 23 23.9
002EEC5A 2019-04-18 02:30:17 15.9 23 23.9
002EEC5A 2019-04-18 01:57:56 16.1 23 23.7
002EEC5A 2019-04-18 01:25:35 16.1 23 23.4
002EEC5A 2019-04-18 00:53:14 16.3 23 23.1
002EEC5A 2019-04-18 00:20:54 16.3 23 22.8
002EEC5A 2019-04-17 23:48:35 16.5 23 22.5
002EEC5A 2019-04-17 23:16:15 16.5 23 22.4
002EEC5A 2019-04-17 22:43:54 16.6 23 22.2
002EEC5A 2019-04-17 22:11:35 16.7 23 21.9
002EEC5A 2019-04-17 21:39:16 16.5 23 21.8
002EEC5A 2019-04-17 21:06:56 16.5 23 21.6
002EEC5A 2019-04-17 20:34:39 16.4 23 21.5
002EEC5A 2019-04-17 20:02:21 16.4 23 21.3
002EEC5A 2019-04-17 19:30:04 16.5 23 21.4
002EEC5A 2019-04-17 18:57:47 16.4 23 21.4
002EEC5A 2019-04-17 18:25:28 16.4 23 21.4
002EEC5A 2019-04-17 17:53:09 16.3 23 21.5
002EEC5A 2019-04-17 17:20:49 16.3 23 21.4
002EEC5A 2019-04-17 16:48:30 16.3 23 21.2
002EEC5A 2019-04-17 16:16:09 16.3 23 21.2
002EEC5A 2019-04-17 15:43:50 16.1 23 21.5
002EEC5A 2019-04-17 15:11:29 16.2 23 21.4
002EEC5A 2019-04-17 14:39:10 16.3 22 20.9
002EEC5A 2019-04-17 14:06:50 16.3 22 20.9
002EEC5A 2019-04-17 13:02:12 16.8 22 21
002EEC5A 2019-04-17 12:29:54 16.6 22 22.1
002EEC5A 2019-04-17 11:57:35 16.5 22 22.2
002EEC5A 2019-04-17 11:25:14 16.5 22 22.2
002EEC5A 2019-04-17 10:52:54 16.3 22 22.2
002EEC5A 2019-04-17 10:20:36 16.3 22 22.2
002EEC5A 2019-04-17 09:48:16 16.3 22 22.3
002EEC5A 2019-04-17 09:15:55 16.3 22 22.2
002EEC5A 2019-04-17 08:43:35 16.4 22 22.2
002EEC5A 2019-04-17 08:11:16 16.5 22 22.2
002EEC5A 2019-04-17 07:38:56 16.8 22 22.3
002EEC5A 2019-04-17 07:06:35 17 22 22.3
002EEC5A 2019-04-17 06:34:14 17 22 22.2
002EEC5A 2019-04-17 06:01:55 17.2 22 22.1
002EEC5A 2019-04-17 05:29:36 17.2 22 22.3
002EEC5A 2019-04-17 04:57:16 17.2 22 22.3
002EEC5A 2019-04-17 04:24:56 17.2 22 22.3
002EEC5A 2019-04-17 03:52:35 17.4 22 22.4
002EEC5A 2019-04-17 03:20:18 17.4 22 22.2
002EEC5A 2019-04-17 02:47:57 17.5 22 22.3
002EEC5A 2019-04-17 02:15:37 17.6 22 22.1
002EEC5A 2019-04-17 01:43:18 17.6 22 20.8
002EEC5A 2019-04-17 01:11:00 17.6 22 20.5
002EEC5A 2019-04-17 00:38:40 17.5 22 20.8
002EEC5A 2019-04-17 00:06:21 17.4 22 20.5
002EEC5A 2019-04-16 23:34:01 17.3 22 20.7
002EEC5A 2019-04-16 23:01:41 17.2 22 19.3
002EEC5A 2019-04-16 22:29:21 17.4 22 19.8
002EEC5A 2019-04-16 21:57:01 17.8 22 19.7
002EEC5A 2019-04-16 21:24:42 18 22 19.7
002EEC5A 2019-04-16 20:52:22 18.3 22 20
002EEC5A 2019-04-16 20:20:00 18.4 22 20.2
002EEC5A 2019-04-16 19:47:40 18.5 22 20.6
002EEC5A 2019-04-16 19:15:20 18.5 22 20.6
002EEC5A 2019-04-16 18:42:59 18.5 22 20.8
002EEC5A 2019-04-16 18:10:39 18.5 21 21
002EEC5A 2019-04-16 17:38:19 18.7 21 21.2
002EEC5A 2019-04-16 17:05:56 18.8 21 21.4
002EEC5A 2019-04-16 16:33:37 18.9 21 21.4
002EEC5A 2019-04-16 16:01:16 19.1 21 21.3
002EEC5A 2019-04-16 15:28:56 19.3 21 21.4
002EEC5A 2019-04-16 14:56:35 19.8 21 21.1
002EEC5A 2019-04-16 13:51:54 21.2 21 21.1
002EEC5A 2019-04-16 13:19:31 21.1 21 21.2
002EEC5A 2019-04-16 12:47:12 21 21 21.4
002EEC5A 2019-04-16 12:14:51 21 21 21.4
002EEC5A 2019-04-16 11:42:27 21 21 21.7
002EEC5A 2019-04-16 11:10:05 21 21 21.7
002EEC5A 2019-04-16 10:37:44 21 21 21.5
002EEC5A 2019-04-16 10:05:23 21 21 21.4
002EEC5A 2019-04-16 09:33:00 21 21 21.2
002EEC5A 2019-04-16 09:00:39 21 21 20.9
002EEC5A 2019-04-16 08:28:18 21 21 20.4
002EEC5A 2019-04-16 07:55:58 21 21 20.4
002EEC5A 2019-04-16 07:23:36 21 21 20.7
002EEC5A 2019-04-16 06:51:12 21 21 20.7
002EEC5A 2019-04-16 06:18:50 21 21 20.4
002EEC5A 2019-04-16 05:46:27 21 21 20.1
002EEC5A 2019-04-16 05:14:06 21 21 20
002EEC5A 2019-04-16 04:41:44 21 21 19.8
002EEC5A 2019-04-16 04:09:22 21 21 19.6
002EEC5A 2019-04-16 03:37:00 21 21 19.4
002EEC5A 2019-04-16 03:04:41 21 21 19.7
002EEC5A 2019-04-16 02:32:16 21 21 19.4
002EEC5A 2019-04-16 01:59:55 21 21 19.1
002EEC5A 2019-04-16 01:27:33 21 21 19.6
002EEC5A 2019-04-16 00:55:11 21.1 21 20.1
002EEC5A 2019-04-16 00:22:47 21.2 21 20.6
002EEC5A 2019-04-15 23:50:23 21.1 20 20.9
002EEC5A 2019-04-15 23:18:00 21.1 20 22
002EEC5A 2019-04-15 22:45:39 21.2 20 22.2
002EEC5A 2019-04-15 22:13:16 21.2 20 22.5
002EEC5A 2019-04-15 21:40:54 21.2 20 23.2
002EEC5A 2019-04-15 21:08:29 21.2 20 23.3
002EEC5A 2019-04-15 20:36:06 21.2 20 23.7
002EEC5A 2019-04-15 20:03:44 21.2 20 24
002EEC5A 2019-04-15 19:31:23 21.1 20 24.1
002EEC5A 2019-04-15 18:59:02 21.1 20 24.3
002EEC5A 2019-04-15 18:26:41 21.1 20 24.6
002EEC5A 2019-04-15 17:54:19 21.2 20 24.8
002EEC5A 2019-04-15 17:21:57 21.2 20 24.9
002EEC5A 2019-04-15 16:49:35 21.3 20 25.1
002EEC5A 2019-04-15 16:17:13 21.4 20 25.2
002EEC5A 2019-04-15 15:44:52 21.4 20 25.3
002EEC5A 2019-04-15 15:12:28 21.5 20 25.4
002EEC5A 2019-04-15 14:40:05 21.5 19 25.5
002EEC5A 2019-04-15 13:35:19 21.9 19 25.6
002EEC5A 2019-04-15 13:02:57 22 19 25.7
002EEC5A 2019-04-15 12:30:35 22.3 19 25.9
002EEC5A 2019-04-15 11:58:13 22.5 18 26.1
002EEC5A 2019-04-15 11:25:50 22.3 17 26.1
002EEC5A 2019-04-15 10:53:25 22.3 18 26.2
002EEC5A 2019-04-15 10:21:02 22.2 18 26.3
002EEC5A 2019-04-15 09:48:39 22.1 18 26.2
002EEC5A 2019-04-15 09:16:16 22.1 18 26.1
002EEC5A 2019-04-15 08:43:53 22.1 18 26
002EEC5A 2019-04-15 08:11:30 21.9 18 26.1
002EEC5A 2019-04-15 07:39:09 21.9 18 26.1
002EEC5A 2019-04-15 07:06:45 21.9 18 26.2
002EEC5A 2019-04-15 06:34:22 21.9 18 26.1
002EEC5A 2019-04-15 06:01:59 21.8 18 26.1
002EEC5A 2019-04-15 05:29:37 21.9 18 26.2
002EEC5A 2019-04-15 04:57:14 21.9 18 26.2
002EEC5A 2019-04-15 04:24:51 21.8 18 26
002EEC5A 2019-04-15 03:52:30 21.9 19 26
002EEC5A 2019-04-15 03:20:09 21.8 19 26
002EEC5A 2019-04-15 02:47:48 21.8 19 26
002EEC5A 2019-04-15 02:15:24 21.9 19 26
002EEC5A 2019-04-15 01:43:02 21.8 19 26.1
002EEC5A 2019-04-15 01:10:39 21.8 19 26.1
002EEC5A 2019-04-15 00:38:15 21.7 19 26.4
002EEC5A 2019-04-15 00:05:52 21.7 19 26.7
002EEC5A 2019-04-14 23:33:29 21.8 19 26.7
002EEC5A 2019-04-14 23:01:04 21.8 19 26.6
002EEC5A 2019-04-14 22:28:40 21.9 19 26.6
002EEC5A 2019-04-14 21:56:17 21.9 19 26.6
002EEC5A 2019-04-14 21:23:53 21.9 19 26.4
002EEC5A 2019-04-14 20:51:30 21.9 19 26.3
002EEC5A 2019-04-14 20:19:07 21.9 19 26.4
002EEC5A 2019-04-14 19:46:45 21.9 19 26.3
002EEC5A 2019-04-14 19:14:23 21.9 19 26.4
002EEC5A 2019-04-14 18:42:00 21.9 19 26.2
002EEC5A 2019-04-14 18:09:41 21.9 19 26.1
002EEC5A 2019-04-14 17:37:16 21.9 19 26.1
002EEC5A 2019-04-14 17:04:53 21.9 19 26.2
002EEC5A 2019-04-14 16:32:31 21.9 19 26.2
002EEC5A 2019-04-14 16:00:09 21.9 19 26.1
002EEC5A 2019-04-14 15:27:47 21.9 19 26.1
002EEC5A 2019-04-14 14:55:25 21.9 19 26.1
002EEC5A 2019-04-14 14:23:04 21.9 19 26.1
002EEC5A 2019-04-14 13:50:41 21.9 19 26.2
002EEC5A 2019-04-14 13:18:19 21.9 19 26.2
002EEC5A 2019-04-14 12:45:56 21.9 20 26.2
002EEC5A 2019-04-14 12:13:34 21.9 20 26.2
002EEC5A 2019-04-14 11:41:12 21.9 20 26.2
002EEC5A 2019-04-14 11:08:49 21.9 20 26.1
002EEC5A 2019-04-14 10:36:26 21.9 20 25.8
002EEC5A 2019-04-14 10:04:03 21.9 20 25.9
002EEC5A 2019-04-14 09:31:39 21.9 19 25.9
002EEC5A 2019-04-14 08:59:16 21.9 19 25.9
002EEC5A 2019-04-14 08:26:54 21.9 19 25.8
002EEC5A 2019-04-14 07:54:33 21.9 19 25.9
002EEC5A 2019-04-14 07:22:11 21.9 19 26
002EEC5A 2019-04-14 06:49:49 21.9 19 25.9
002EEC5A 2019-04-14 06:17:26 21.9 19 25.8
002EEC5A 2019-04-14 05:45:04 21.9 19 25.8
002EEC5A 2019-04-14 05:12:42 21.9 19 26
002EEC5A 2019-04-14 04:40:19 21.9 19 26.1
002EEC5A 2019-04-14 04:07:56 21.9 19 26
002EEC5A 2019-04-14 03:35:33 21.9 19 26
002EEC5A 2019-04-14 03:03:09 21.9 19 26
002EEC5A 2019-04-14 02:30:48 21.9 19 26
002EEC5A 2019-04-14 01:58:25 21.9 19 26.1
002EEC5A 2019-04-14 01:26:03 22 19 26.2
002EEC5A 2019-04-14 00:53:41 21.9 19 26.3
002EEC5A 2019-04-14 00:21:21 22.1 19 26.3
002EEC5A 2019-04-13 23:49:00 22.1 19 26.4
002EEC5A 2019-04-13 23:16:39 22.1 19 26.4
002EEC5A 2019-04-13 22:44:17 22.1 19 26.5
002EEC5A 2019-04-13 22:11:56 22.1 19 26.5
002EEC5A 2019-04-13 21:39:34 22.1 19 26.4
002EEC5A 2019-04-13 21:07:12 22.1 19 26.4
002EEC5A 2019-04-13 20:34:49 22.1 19 26.4
002EEC5A 2019-04-13 20:02:27 22.1 19 26.4
002EEC5A 2019-04-13 19:30:05 22.1 19 26.5
002EEC5A 2019-04-13 18:57:44 22.1 19 26.5
002EEC5A 2019-04-13 18:25:22 22.1 19 26.5
002EEC5A 2019-04-13 17:52:58 22.1 19 26.6
002EEC5A 2019-04-13 17:20:35 22.2 19 26.6
002EEC5A 2019-04-13 16:48:13 22.2 19 26.8
002EEC5A 2019-04-13 16:15:50 22.3 19 26.7
002EEC5A 2019-04-13 15:43:28 22.3 19 26.7
002EEC5A 2019-04-13 15:11:07 22.3 19 26.6
002EEC5A 2019-04-13 14:38:47 22.3 19 26.6
002EEC5A 2019-04-13 14:06:25 22.3 19 26.5
002EEC5A 2019-04-13 13:34:03 22.3 19 26.6
002EEC5A 2019-04-13 13:01:42 22.3 19 26.6
002EEC5A 2019-04-13 12:29:21 22.3 19 26.7
002EEC5A 2019-04-13 11:56:58 22.3 19 26.5
002EEC5A 2019-04-13 11:24:35 22.3 19 26.5
002EEC5A 2019-04-13 10:52:12 22.3 19 26.3
002EEC5A 2019-04-13 10:19:49 22.3 19 26.4
002EEC5A 2019-04-13 09:47:25 22.3 19 26.3
002EEC5A 2019-04-13 09:15:02 22.3 19 26.4
002EEC5A 2019-04-13 08:42:40 22.3 19 26.5
002EEC5A 2019-04-13 08:10:19 22.3 19 26.5
002EEC5A 2019-04-13 07:37:56 22.3 19 26.5
002EEC5A 2019-04-13 07:05:34 22.3 19 26.4
002EEC5A 2019-04-13 06:33:10 22.3 19 26.3
002EEC5A 2019-04-13 06:00:48 22.3 19 26.5
002EEC5A 2019-04-13 05:28:26 22.3 19 26.8
002EEC5A 2019-04-13 04:56:02 22.3 19 26.7
002EEC5A 2019-04-13 04:23:39 22.3 19 26.6
002EEC5A 2019-04-13 03:51:16 22.3 19 26.5
002EEC5A 2019-04-13 03:18:53 22.4 19 26.6
002EEC5A 2019-04-13 02:46:30 22.5 19 26.7
002EEC5A 2019-04-13 02:14:07 22.5 19 26.5
002EEC5A 2019-04-13 01:41:43 22.5 19 26.5
002EEC5A 2019-04-13 01:09:20 22.5 19 26.6
002EEC5A 2019-04-13 00:36:57 22.5 20 26.7
002EEC5A 2019-04-13 00:04:33 22.5 20 26.7
002EEC5A 2019-04-12 23:32:10 22.5 20 26.7
002EEC5A 2019-04-12 22:59:48 22.7 20 26.6
002EEC5A 2019-04-12 22:27:25 22.7 20 26.7
002EEC5A 2019-04-12 21:55:01 22.7 20 26.8
002EEC5A 2019-04-12 21:22:37 22.8 20 26.9
002EEC5A 2019-04-12 20:50:13 22.8 20 26.9
002EEC5A 2019-04-12 20:17:49 22.7 20 27.1
002EEC5A 2019-04-12 19:45:26 22.8 19 26.8
002EEC5A 2019-04-12 19:13:00 22.9 19 26.7
002EEC5A 2019-04-12 18:40:37 22.9 18 26.7
002EEC5A 2019-04-12 18:08:12 23.1 18 26.9
002EEC5A 2019-04-12 17:35:48 23.2 19 27.1
002EEC5A 2019-04-12 17:03:25 23.1 19 27.1
002EEC5A 2019-04-12 16:31:01 22.9 19 26.8
002EEC5A 2019-04-12 15:58:36 22.9 19 25.9
002EEC5A 2019-04-12 15:26:12 22.7 19 26.2
002EEC5A 2019-04-12 14:53:48 22.6 20 26.4
002EEC5A 2019-04-12 14:21:25 22.3 21 27.2
002EEC5A 2019-04-12 13:49:01 21.9 21 24.4
002EEC5A 2019-04-12 13:16:38 21.2 22 21.9